Date,TemperatureHighF,TemperatureAvgF,TemperatureLowF,DewpointHighF,DewpointAvgF,DewpointLowF,HumidityHigh,HumidityAvg,HumidityLow,PressureMaxIn,PressureMinIn,WindSpeedMaxMPH,WindSpeedAvgMPH,GustSpeedMaxMPH,PrecipitationSumIn
2013-2-1,48.2,44.4,41.5,44.5,42.2,39.4,95,92,86,30.37,30.29,2,0,2,0.02
2013-2-2,41.7,38.8,36.1,39.6,36.5,32.9,93,91,88,30.34,30.19,2,0,2,0.00
2013-2-3,46.6,41.4,36.3,43.7,38.9,33.1,94,91,86,30.25,30.16,2,0,2,0.11
2013-2-4,50.9,44.4,42.1,44.7,40.6,38.6,93,87,75,30.17,29.86,2,0,2,0.00
2013-2-5,48.0,44.0,41.5,42.4,39.3,37.8,89,84,74,29.92,29.81,8,0,8,0.30
2013-2-6,48.6,43.3,41.0,39.3,37.1,35.4,85,79,65,30.01,29.76,5,0,5,0.06
2013-2-7,56.5,40.2,30.9,38.4,32.4,25.8,85,74,48,30.14,29.76,4,0,4,0.12
2013-2-8,43.0,35.5,28.8,33.9,29.4,24.6,85,78,67,30.24,30.14,2,0,2,0.00
2013-2-9,41.4,38.8,36.3,36.6,34.0,30.2,86,83,76,30.27,30.20,2,0,2,0.05
2013-2-10,46.4,38.6,34.0,39.1,32.6,29.2,87,79,64,30.31,30.25,2,0,2,0.00
2013-2-11,45.3,40.3,35.6,35.6,33.4,29.7,85,76,65,30.31,30.26,2,0,2,0.00
2013-2-12,46.8,43.8,39.7,42.4,38.3,33.8,86,81,72,30.36,30.25,8,0,8,0.08
2013-2-13,46.9,43.7,41.9,39.1,36.6,34.6,83,76,71,30.44,30.26,6,0,6,0.01
2013-2-14,42.1,41.7,41.0,37.6,36.8,35.5,84,83,80,30.45,30.44,2,0,2,0.01
2013-2-16,53.6,41.6,34.3,38.9,31.4,-5.7,85,70,12,30.14,30.06,7,1,7,0.63
2013-2-17,44.4,38.3,35.1,34.0,20.3,-13.3,83,59,11,30.17,30.06,1,0,1,0.01
2013-2-18,44.8,38.3,32.9,34.5,24.0,-13.9,73,60,11,30.04,29.71,1,0,1,0.00
2013-2-19,53.8,39.0,30.0,36.1,24.3,-13.4,72,59,13,29.95,29.68,2,0,2,0.00
2013-2-20,44.8,37.2,31.3,34.6,25.7,-5.6,74,66,15,29.98,29.94,2,0,2,0.04
2013-2-21,41.9,39.2,35.4,34.6,28.5,-13.3,78,68,11,30.02,29.95,7,1,7,0.06
2013-2-22,43.5,40.0,37.2,36.5,31.1,-12.6,77,72,11,30.00,29.66,7,2,8,0.15
2013-2-23,46.9,40.1,36.0,35.8,28.9,-12.8,77,67,11,30.32,29.84,5,0,5,0.05
2013-2-24,46.2,41.7,36.0,35.6,32.7,23.8,77,70,61,30.32,29.91,5,0,5,0.00
2013-2-25,49.5,41.8,34.7,35.4,29.0,-5.7,77,64,15,30.26,29.84,9,1,9,0.09
2013-2-26,48.0,39.8,29.7,34.2,26.7,-13.0,78,60,14,30.30,30.16,5,0,5,0.01
2013-2-27,40.6,37.7,37.0,34.0,-3.0,-12.7,78,22,11,30.19,30.16,0,0,0,0.06